N35HF KIND-KDAY

Flight info

Callsign N35HF
Flight time 0h 38m
Altitude 7000
Route RID
Aircraft S76/L-SDGRY/S

Departure

Time 2026-05-06 02:22
Airport Indianapolis International Airport (KIND)

Arrival

Time 2026-05-06 03:00
Airport James M. Cox Dayton International Airport (KDAY)
Time Latitude Longitude Altitude Speed Heading
2026-05-06 01:54 39.72575 -86.27126 778 ft 0 kts 179°
2026-05-06 02:10 39.72579 -86.27126 790 ft 2 kts 180°
2026-05-06 02:10 39.72588 -86.27126 790 ft 1 kts 237°
2026-05-06 02:12 39.72588 -86.27127 790 ft 1 kts 247°
2026-05-06 02:12 39.72584 -86.27170 802 ft 8 kts 258°
2026-05-06 02:12 39.72558 -86.27230 789 ft 7 kts 215°
2026-05-06 02:12 39.72520 -86.27233 789 ft 5 kts 169°
2026-05-06 02:13 39.72480 -86.27224 789 ft 5 kts 180°
2026-05-06 02:13 39.72445 -86.27224 789 ft 6 kts 178°
2026-05-06 02:13 39.72397 -86.27214 789 ft 7 kts 151°
2026-05-06 02:13 39.72363 -86.27178 788 ft 6 kts 139°
2026-05-06 02:14 39.72334 -86.27201 787 ft 4 kts 225°
2026-05-06 02:14 39.72272 -86.27282 786 ft 17 kts 225°
2026-05-06 02:14 39.72199 -86.27372 787 ft 12 kts 225°
2026-05-06 02:14 39.72142 -86.27445 787 ft 11 kts 224°
2026-05-06 02:15 39.72090 -86.27512 788 ft 9 kts 225°
2026-05-06 02:15 39.72058 -86.27553 790 ft 5 kts 226°
2026-05-06 02:15 39.72022 -86.27599 792 ft 6 kts 225°
2026-05-06 02:15 39.71983 -86.27649 793 ft 9 kts 225°
2026-05-06 02:16 39.71931 -86.27714 793 ft 12 kts 224°
2026-05-06 02:16 39.71871 -86.27792 795 ft 13 kts 225°
2026-05-06 02:16 39.71800 -86.27880 795 ft 17 kts 224°
2026-05-06 02:16 39.71718 -86.27982 792 ft 16 kts 226°
2026-05-06 02:17 39.71646 -86.28083 792 ft 14 kts 234°
2026-05-06 02:17 39.71606 -86.28189 791 ft 12 kts 249°
2026-05-06 02:17 39.71563 -86.28280 790 ft 12 kts 227°
2026-05-06 02:17 39.71500 -86.28363 792 ft 14 kts 225°
2026-05-06 02:18 39.71436 -86.28445 793 ft 13 kts 225°
2026-05-06 02:18 39.71375 -86.28522 793 ft 12 kts 224°
2026-05-06 02:18 39.71317 -86.28596 796 ft 13 kts 224°
2026-05-06 02:18 39.71247 -86.28684 796 ft 15 kts 224°
2026-05-06 02:19 39.71168 -86.28786 796 ft 17 kts 226°
2026-05-06 02:19 39.71087 -86.28892 796 ft 18 kts 224°
2026-05-06 02:19 39.70994 -86.29008 792 ft 18 kts 227°
2026-05-06 02:19 39.70907 -86.29117 793 ft 16 kts 219°
2026-05-06 02:20 39.70771 -86.29292 792 ft 8 kts 220°
2026-05-06 02:20 39.70764 -86.29343 793 ft 6 kts 303°
2026-05-06 02:20 39.70802 -86.29387 792 ft 11 kts 321°
2026-05-06 02:21 39.70846 -86.29399 790 ft 7 kts 48°
2026-05-06 02:21 39.70852 -86.29390 790 ft 0 kts 47°
2026-05-06 02:21 39.70873 -86.29349 814 ft 17 kts 44°
2026-05-06 02:21 39.71125 -86.29019 830 ft 85 kts 43°
2026-05-06 02:22 39.71553 -86.28449 1223 ft 77 kts 37°
2026-05-06 02:22 39.71675 -86.27853 1602 ft 88 kts 69°
2026-05-06 02:22 39.71816 -86.27054 1960 ft 92 kts 66°
2026-05-06 02:22 39.71944 -86.26248 2408 ft 91 kts 66°
2026-05-06 02:23 39.72062 -86.25454 2845 ft 88 kts 65°
2026-05-06 02:23 39.72174 -86.24672 3212 ft 88 kts 66°
2026-05-06 02:23 39.72285 -86.23883 3575 ft 89 kts 67°
2026-05-06 02:23 39.72423 -86.23091 3933 ft 91 kts 66°
2026-05-06 02:24 39.72521 -86.22254 4274 ft 97 kts 79°
2026-05-06 02:24 39.72548 -86.21376 4565 ft 99 kts 81°
2026-05-06 02:24 39.72571 -86.20475 4850 ft 100 kts 83°
2026-05-06 02:24 39.72590 -86.19568 5122 ft 102 kts 84°
2026-05-06 02:25 39.72610 -86.18649 5388 ft 103 kts 85°
2026-05-06 02:25 39.72631 -86.17720 5658 ft 102 kts 86°
2026-05-06 02:25 39.72651 -86.16795 5902 ft 103 kts 88°
2026-05-06 02:25 39.72674 -86.15862 6166 ft 104 kts 89°
2026-05-06 02:26 39.72697 -86.14911 6437 ft 106 kts 90°
2026-05-06 02:26 39.72723 -86.13947 6666 ft 108 kts 89°
2026-05-06 02:26 39.72758 -86.12970 6846 ft 109 kts 88°
2026-05-06 02:26 39.72801 -86.11986 6946 ft 109 kts 88°
2026-05-06 02:27 39.72842 -86.10985 6949 ft 114 kts 88°
2026-05-06 02:27 39.72865 -86.09929 6973 ft 125 kts 93°
2026-05-06 02:27 39.72875 -86.08713 6968 ft 143 kts 91°
2026-05-06 02:27 39.72906 -86.07394 6955 ft 152 kts 90°
2026-05-06 02:28 39.72945 -86.05983 6952 ft 156 kts 90°
2026-05-06 02:28 39.72986 -86.04558 6955 ft 159 kts 90°
2026-05-06 02:28 39.73026 -86.03110 6957 ft 161 kts 90°
2026-05-06 02:28 39.73073 -86.01658 6836 ft 159 kts 87°
2026-05-06 02:29 39.73096 -86.00328 6989 ft 148 kts 91°
2026-05-06 02:29 39.73131 -85.98951 6978 ft 157 kts 91°
2026-05-06 02:29 39.73169 -85.97500 6958 ft 163 kts 91°
2026-05-06 02:29 39.73212 -85.96015 6950 ft 166 kts 90°
2026-05-06 02:30 39.73252 -85.94505 6950 ft 168 kts 91°
2026-05-06 02:30 39.73294 -85.92987 6950 ft 169 kts 91°
2026-05-06 02:30 39.73335 -85.91477 6948 ft 169 kts 90°
2026-05-06 02:30 39.73377 -85.89928 6950 ft 169 kts 90°
2026-05-06 02:31 39.73416 -85.88398 6951 ft 170 kts 91°
2026-05-06 02:31 39.73453 -85.86855 6952 ft 172 kts 91°
2026-05-06 02:31 39.73492 -85.85318 6950 ft 173 kts 91°
2026-05-06 02:31 39.73531 -85.83757 6949 ft 173 kts 91°
2026-05-06 02:32 39.73570 -85.82193 6949 ft 174 kts 91°
2026-05-06 02:32 39.73611 -85.80624 6949 ft 174 kts 91°
2026-05-06 02:32 39.73656 -85.79059 6946 ft 173 kts 90°
2026-05-06 02:32 39.73693 -85.77497 6945 ft 173 kts 91°
2026-05-06 02:33 39.73727 -85.75940 6948 ft 173 kts 91°
2026-05-06 02:33 39.73752 -85.74882 6947 ft 173 kts 91°
2026-05-06 02:33 39.73838 -85.71232 6930 ft 174 kts 90°
2026-05-06 02:34 39.73875 -85.69662 6931 ft 174 kts 91°
2026-05-06 02:34 39.73911 -85.68088 6930 ft 174 kts 91°
2026-05-06 02:34 39.73948 -85.66518 6929 ft 174 kts 91°
2026-05-06 02:34 39.73982 -85.64940 6931 ft 175 kts 91°
2026-05-06 02:35 39.74018 -85.63357 6930 ft 176 kts 91°
2026-05-06 02:35 39.74053 -85.61770 6928 ft 176 kts 91°
2026-05-06 02:35 39.74087 -85.60181 6928 ft 176 kts 91°
2026-05-06 02:35 39.74124 -85.58596 6925 ft 175 kts 91°
2026-05-06 02:36 39.74160 -85.57014 6916 ft 175 kts 91°
2026-05-06 02:36 39.74193 -85.55438 6918 ft 174 kts 91°
2026-05-06 02:36 39.74226 -85.53866 6918 ft 174 kts 91°
2026-05-06 02:36 39.74259 -85.52293 6917 ft 174 kts 91°
2026-05-06 02:37 39.74292 -85.50727 6918 ft 173 kts 92°
2026-05-06 02:37 39.74320 -85.49161 6919 ft 174 kts 91°
2026-05-06 02:37 39.74353 -85.47585 6918 ft 175 kts 91°
2026-05-06 02:37 39.74390 -85.46004 6918 ft 175 kts 91°
2026-05-06 02:38 39.74419 -85.44427 6916 ft 174 kts 91°
2026-05-06 02:38 39.74453 -85.42853 6917 ft 175 kts 91°
2026-05-06 02:38 39.74485 -85.41275 6917 ft 175 kts 92°
2026-05-06 02:38 39.74514 -85.39690 6916 ft 175 kts 91°
2026-05-06 02:39 39.74549 -85.38109 6911 ft 175 kts 91°
2026-05-06 02:39 39.74582 -85.36539 6915 ft 173 kts 92°
2026-05-06 02:39 39.74612 -85.34972 6914 ft 174 kts 92°
2026-05-06 02:39 39.74642 -85.33397 6920 ft 175 kts 92°
2026-05-06 02:40 39.74675 -85.31817 6916 ft 175 kts 91°
2026-05-06 02:40 39.74706 -85.30234 6917 ft 175 kts 92°
2026-05-06 02:40 39.74733 -85.28658 6918 ft 175 kts 91°
2026-05-06 02:40 39.74735 -85.28534 6915 ft 175 kts 92°
2026-05-06 02:41 39.74771 -85.26900 6918 ft 177 kts 88°
2026-05-06 02:41 39.74984 -85.25313 6916 ft 179 kts 80°
2026-05-06 02:41 39.75242 -85.23733 6916 ft 178 kts 79°
2026-05-06 02:41 39.75499 -85.22157 6916 ft 178 kts 81°
2026-05-06 02:42 39.75753 -85.20590 6915 ft 177 kts 81°
2026-05-06 02:42 39.76003 -85.19025 6918 ft 176 kts 80°
2026-05-06 02:42 39.76249 -85.17467 6918 ft 177 kts 80°
2026-05-06 02:42 39.76493 -85.15907 6915 ft 175 kts 81°
2026-05-06 02:43 39.76732 -85.14357 6915 ft 174 kts 81°
2026-05-06 02:43 39.76970 -85.12809 6918 ft 175 kts 81°
2026-05-06 02:43 39.77205 -85.11254 6917 ft 176 kts 81°
2026-05-06 02:43 39.77437 -85.09689 6919 ft 177 kts 81°
2026-05-06 02:44 39.77673 -85.08107 6919 ft 179 kts 81°
2026-05-06 02:44 39.77909 -85.06540 6917 ft 179 kts 81°
2026-05-06 02:44 39.78146 -85.04955 6915 ft 178 kts 81°
2026-05-06 02:44 39.78381 -85.03378 6917 ft 178 kts 82°
2026-05-06 02:45 39.78613 -85.01802 6916 ft 178 kts 81°
2026-05-06 02:45 39.78847 -85.00225 6917 ft 177 kts 82°
2026-05-06 02:45 39.79078 -84.98650 6917 ft 178 kts 81°
2026-05-06 02:45 39.79309 -84.97074 6915 ft 178 kts 82°
2026-05-06 02:46 39.79543 -84.95494 6914 ft 178 kts 82°
2026-05-06 02:46 39.79778 -84.93911 6914 ft 179 kts 82°
2026-05-06 02:46 39.80012 -84.92326 6914 ft 178 kts 82°
2026-05-06 02:46 39.80248 -84.90749 6913 ft 177 kts 82°
2026-05-06 02:47 39.80481 -84.89178 6915 ft 177 kts 82°
2026-05-06 02:47 39.80712 -84.87604 6921 ft 177 kts 82°
2026-05-06 02:47 39.80941 -84.86032 6913 ft 177 kts 82°
2026-05-06 02:47 39.81173 -84.84460 6914 ft 177 kts 82°
2026-05-06 02:48 39.81403 -84.82884 6914 ft 177 kts 81°
2026-05-06 02:48 39.81633 -84.81304 6925 ft 179 kts 82°
2026-05-06 02:48 39.81865 -84.79701 6916 ft 181 kts 82°
2026-05-06 02:48 39.82102 -84.78086 6913 ft 183 kts 82°
2026-05-06 02:49 39.82345 -84.76457 6913 ft 183 kts 82°
2026-05-06 02:49 39.82586 -84.74830 6915 ft 183 kts 82°
2026-05-06 02:49 39.82828 -84.73198 6914 ft 184 kts 82°
2026-05-06 02:49 39.83067 -84.71567 6916 ft 184 kts 82°
2026-05-06 02:50 39.83305 -84.69933 6918 ft 184 kts 82°
2026-05-06 02:50 39.83463 -84.68848 6920 ft 184 kts 83°
2026-05-06 02:50 39.83706 -84.67215 6916 ft 184 kts 82°
2026-05-06 02:50 39.84047 -84.65058 6744 ft 178 kts 82°
2026-05-06 02:51 39.84204 -84.64021 6658 ft 175 kts 82°
2026-05-06 02:51 39.84436 -84.62497 6444 ft 169 kts 83°
2026-05-06 02:51 39.84648 -84.61020 6278 ft 163 kts 83°
2026-05-06 02:51 39.84851 -84.59590 6096 ft 159 kts 83°
2026-05-06 02:52 39.85049 -84.58189 5897 ft 156 kts 84°
2026-05-06 02:52 39.85241 -84.56818 5690 ft 153 kts 83°
2026-05-06 02:52 39.85489 -84.55038 5431 ft 150 kts 83°
2026-05-06 02:52 39.85615 -84.54143 5293 ft 149 kts 83°
2026-05-06 02:53 39.85800 -84.52820 5100 ft 148 kts 83°
2026-05-06 02:53 39.85985 -84.51507 4901 ft 147 kts 83°
2026-05-06 02:53 39.86171 -84.50176 4652 ft 151 kts 83°
2026-05-06 02:53 39.86369 -84.48784 4250 ft 161 kts 79°
2026-05-06 02:54 39.86577 -84.47335 3881 ft 163 kts 77°
2026-05-06 02:54 39.86787 -84.45891 3522 ft 161 kts 76°
2026-05-06 02:54 39.86992 -84.44467 3165 ft 158 kts 73°
2026-05-06 02:54 39.87192 -84.43081 2815 ft 154 kts 73°
2026-05-06 02:55 39.87379 -84.41763 2622 ft 141 kts 72°
2026-05-06 02:55 39.87544 -84.40566 2555 ft 129 kts 71°
2026-05-06 02:55 39.87700 -84.39443 2531 ft 123 kts 71°
2026-05-06 02:55 39.87853 -84.38371 2514 ft 118 kts 72°
2026-05-06 02:56 39.88001 -84.37341 2503 ft 114 kts 72°
2026-05-06 02:56 39.88146 -84.36376 2490 ft 103 kts 70°
2026-05-06 02:56 39.88273 -84.35509 2498 ft 93 kts 67°
2026-05-06 02:56 39.88387 -84.34713 2500 ft 87 kts 67°
2026-05-06 02:57 39.88495 -84.33962 2495 ft 82 kts 68°
2026-05-06 02:57 39.88596 -84.33250 2486 ft 80 kts 66°
2026-05-06 02:57 39.88693 -84.32540 2451 ft 84 kts 66°
2026-05-06 02:57 39.88828 -84.31728 2275 ft 97 kts 69°
2026-05-06 02:58 39.88956 -84.30839 2140 ft 103 kts 69°
2026-05-06 02:58 39.88977 -84.29892 2087 ft 104 kts 82°
2026-05-06 02:58 39.88875 -84.28967 2167 ft 108 kts 92°
2026-05-06 02:58 39.88727 -84.27962 2200 ft 119 kts 88°
2026-05-06 02:59 39.88649 -84.26855 2131 ft 131 kts 79°
2026-05-06 02:59 39.88722 -84.25650 2036 ft 137 kts 72°
2026-05-06 02:59 39.88903 -84.24436 2038 ft 133 kts 70°
2026-05-06 02:59 39.89120 -84.23304 2012 ft 125 kts 60°
2026-05-06 03:00 39.89419 -84.22293 1754 ft 117 kts 58°
2026-05-06 03:00 39.89673 -84.21386 1445 ft 83 kts 42°
2026-05-06 03:00 39.90018 -84.21032 1152 ft 39 kts
2026-05-06 03:00 39.90236 -84.20964 1077 ft 33 kts
2026-05-06 03:01 39.90412 -84.20918 1053 ft 18 kts 25°
2026-05-06 03:01 39.90498 -84.20854 1034 ft 7 kts 21°
2026-05-06 03:01 39.90548 -84.20842 1015 ft 5 kts
2026-05-06 03:01 39.90558 -84.20841 1004 ft 1 kts 350°
2026-05-06 03:02 39.90559 -84.20842 1004 ft 0 kts 352°